{"data":{"norad_id":65282,"intl_designator":"2025-184K","name":"STARLINK-35021","alt_names":[],"object_type":"PAYLOAD","status":"ACTIVE","operator":null,"country":"US","launch_date":"2025-08-22","launch_site_code":"AFWTR","launch_vehicle":null,"mission":null,"orbit_class":"UNKNOWN","rcs_meters":null,"size_class":null,"mass_kg":null,"dimensions":null,"purposes":["comms"],"wikipedia_slug":null,"has_3d_model":false,"image_url":null,"decayed_at":null,"tle_current":{"epoch":"2026-05-25T02:36:08.205120Z","epoch_age_seconds":65753,"freshness":"FRESH","line1":"1 65282U 25184K   26145.10842830  .00003028  00000+0  21382-3 0  9998","line2":"2 65282  97.4503 197.6815 0001266 139.3811 220.7511 15.05657619 42752","mean_motion":15.05657619,"eccentricity":0.0001266,"inclination_deg":97.4503,"raan_deg":197.6815,"arg_perigee_deg":139.3811,"mean_anomaly_deg":220.7511,"bstar":0.00021382,"rev_number":4275,"period_min":95.63927295479,"perigee_km":548.61074631292,"apogee_km":550.36482090813,"semimajor_km":6927.6247836105,"source":"CELESTRAK","updated_at":"2026-05-25T13:38:20.731233Z"}}}